| time (UTC) | temp C | wind direction | speed KPH | gust KPH | rain 1hr cm | rain 24hr cm | rain mn cm | humidity % | barometer mb |
| 20260504090118 | 3 | 80 | 3.2 | 4.8 | 0.00 | 0.00 | 0.00 | 51 | 1003.0 |
| 20260504081600 | 3 | 86 | 0.0 | 3.2 | 0.00 | 0.00 | 0.00 | 50 | 1003.6 |
| 20260504080105 | 3 | 72 | 1.6 | 4.8 | 0.00 | 0.00 | 0.00 | 50 | 1003.8 |
| 20260504044604 | 5 | 63 | 0.0 | 0.0 | 0.00 | 0.00 | 0.00 | 42 | 1004.8 |
| 20260504043108 | 6 | 46 | 0.0 | 0.0 | 0.00 | 0.00 | 0.00 | 42 | 1005.0 |
| 20260504041556 | 6 | 338 | 0.0 | 0.0 | 0.00 | 0.00 | 0.00 | 41 | 1005.0 |
| 20260504040116 | 6 | 338 | 0.0 | 0.0 | 0.00 | 0.00 | 0.00 | 39 | 1005.0 |
| 20260504034634 | 7 | 338 | 0.0 | 0.0 | 0.00 | 0.00 | 0.00 | 40 | 1005.1 |
| 20260504033056 | 7 | 338 | 0.0 | 3.2 | 0.00 | 0.00 | 0.00 | 39 | 1005.0 |
| 20260504031517 | 7 | 338 | 0.0 | 1.6 | 0.00 | 0.00 | 0.00 | 36 | 1005.1 |
| 20260504030007 | 7 | 338 | 0.0 | 3.2 | 0.00 | 0.00 | 0.00 | 39 | 1005.0 |
| 20260504024511 | 7 | 338 | 0.0 | 8.0 | 0.00 | 0.00 | 0.00 | 37 | 1004.9 |
| 20260504023002 | 8 | 343 | 0.0 | 0.0 | 0.00 | 0.00 | 0.00 | 35 | 1004.7 |
| 20260504021609 | 8 | 343 | 0.0 | 0.0 | 0.00 | 0.00 | 0.00 | 33 | 1004.5 |
| 20260504020108 | 9 | 343 | 0.0 | 0.0 | 0.00 | 0.00 | 0.00 | 35 | 1004.4 |
| 20260504014607 | 10 | 336 | 1.6 | 8.0 | 0.00 | 0.00 | 0.00 | 32 | 1004.2 |
| 20260504013057 | 10 | 351 | 1.6 | 9.7 | 0.00 | 0.00 | 0.00 | 29 | 1004.3 |
| 20260504011511 | 11 | 297 | 3.2 | 12.9 | 0.00 | 0.00 | 0.00 | 27 | 1004.2 |
| 20260504010009 | 11 | 300 | 3.2 | 8.0 | 0.00 | 0.00 | 0.00 | 31 | 1004.3 |
| 20260504004516 | 11 | 47 | 0.0 | 3.2 | 0.00 | 0.00 | 0.00 | 28 | 1004.5 |
| 20260504003017 | 12 | 239 | 1.6 | 11.3 | 0.00 | 0.00 | 0.00 | 29 | 1004.4 |
| 20260504001505 | 12 | 267 | 1.6 | 11.3 | 0.00 | 0.00 | 0.00 | 25 | 1004.4 |
| 20260504000017 | 12 | 323 | 1.6 | 8.0 | 0.00 | 0.00 | 0.00 | 26 | 1004.5 |
| 20260503234538 | 11 | 317 | 4.8 | 20.9 | 0.00 | 0.00 | 0.00 | 24 | 1004.5 |
| 20260503233041 | 11 | 294 | 0.0 | 6.4 | 0.00 | 0.00 | 0.00 | 27 | 1004.6 |
| 20260503231540 | 12 | 255 | 1.6 | 11.3 | 0.00 | 0.00 | 0.00 | 25 | 1004.5 |
| 20260503230126 | 13 | 255 | 3.2 | 8.0 | 0.00 | 0.00 | 0.00 | 28 | 1004.4 |
| 20260503224514 | 12 | 276 | 4.8 | 16.1 | 0.00 | 0.00 | 0.00 | 25 | 1004.6 |
| 20260503223051 | 12 | 301 | 4.8 | 11.3 | 0.00 | 0.00 | 0.00 | 26 | 1004.9 |
| 20260503221608 | 12 | 265 | 3.2 | 9.7 | 0.00 | 0.00 | 0.00 | 26 | 1005.0 |
| 20260503220111 | 13 | 275 | 6.4 | 12.9 | 0.00 | 0.00 | 0.00 | 26 | 1005.3 |
| 20260503214621 | 13 | 249 | 3.2 | 12.9 | 0.00 | 0.00 | 0.00 | 26 | 1005.6 |
| 20260503213001 | 12 | 226 | 3.2 | 16.1 | 0.00 | 0.00 | 0.00 | 25 | 1006.2 |
| 20260503211620 | 12 | 262 | 3.2 | 9.7 | 0.00 | 0.00 | 0.00 | 29 | 1006.3 |
| 20260503210035 | 13 | 179 | 3.2 | 12.9 | 0.00 | 0.00 | 0.00 | 25 | 1006.6 |
| 20260503204552 | 12 | 261 | 0.0 | 14.5 | 0.00 | 0.00 | 0.00 | 28 | 1007.0 |
| 20260503203051 | 12 | 271 | 8.0 | 16.1 | 0.00 | 0.00 | 0.00 | 23 | 1007.3 |
| 20260503201547 | 13 | 182 | 3.2 | 11.3 | 0.00 | 0.00 | 0.00 | 30 | 1007.5 |
| 20260503200052 | 12 | 131 | 4.8 | 14.5 | 0.00 | 0.00 | 0.00 | 25 | 1007.6 |
| 20260503194554 | 11 | 146 | 0.0 | 9.7 | 0.00 | 0.00 | 0.00 | 28 | 1007.9 |
| 20260503193113 | 12 | 153 | 3.2 | 11.3 | 0.00 | 0.00 | 0.00 | 30 | 1008.1 |
| 20260503191620 | 12 | 166 | 3.2 | 9.7 | 0.00 | 0.00 | 0.00 | 29 | 1008.4 |
| 20260503190111 | 11 | 123 | 1.6 | 11.3 | 0.00 | 0.00 | 0.00 | 31 | 1008.6 |
| 20260503184622 | 11 | 247 | 3.2 | 12.9 | 0.00 | 0.00 | 0.00 | 29 | 1009.0 |
| 20260503183114 | 11 | 163 | 3.2 | 9.7 | 0.00 | 0.00 | 0.00 | 35 | 1009.4 |
| 20260503181600 | 11 | 299 | 3.2 | 14.5 | 0.00 | 0.00 | 0.00 | 28 | 1009.7 |
| 20260503180109 | 11 | 261 | 3.2 | 9.7 | 0.00 | 0.00 | 0.00 | 33 | 1010.1 |
| 20260503174502 | 11 | 320 | 3.2 | 11.3 | 0.00 | 0.00 | 0.00 | 34 | 1010.3 |
| 20260503173008 | 10 | 284 | 3.2 | 12.9 | 0.00 | 0.00 | 0.00 | 31 | 1010.6 |
| 20260503171531 | 10 | 329 | 3.2 | 14.5 | 0.00 | 0.00 | 0.00 | 32 | 1010.8 |
| 20260503150113 | 7 | 330 | 1.6 | 8.0 | 0.00 | 0.00 | 0.00 | 39 | 1012.2 |
| 20260503140121 | 5 | 5 | 0.0 | 0.0 | 0.00 | 0.00 | 0.00 | 45 | 1012.4 |
| 20260503100110 | 2 | 118 | 1.6 | 6.4 | 0.00 | 0.00 | 0.00 | 47 | 1013.5 |